Tracking 19564 objects as of 19-Mar-2019
HD Live streaming from Space Station
objects crossing your sky now

H-2A R/B

Track H-2A R/B now!
10-day predictions


NORAD ID: 43682
Int'l Code: 2018-084L
Perigee: 526.7 km
Apogee: 605.8 km
Inclination: 98.9 °
Period: 95.8 minutes
Semi major axis: 6937 km
RCS: Unknown
Launch date: October 29, 2018
Source: Japan (JPN)
Launch site: TANEGASHIMA SPACE CENTER (TNSTA)

Note: This is a ROCKET BODY
aabbcc
Your satellite tracking list
Your tracking list is empty




NASA's NSSDC Master Catalog

Two Line Element Set (TLE):
1 43682U 18084L   19077.86847369 -.00000098 +00000-0 -98796-6 0  9993
2 43682 098.8650 212.9608 0057037 186.9477 173.0961 15.02531634021081
Source of the keplerian elements: AFSPC